[[{"header":{"parameterUnit":"m.s-1","parameterCategory":1,"la1":30.2991,"la2":30.254,"lo1":-89.0895,"lo2":-89.0444,"dy":0.0017,"dx":0.0017,"nx":28,"ny":28,"refTime":"2024-06-07T21:00:00:Z","depth":0,"parameterNumber":2,"parameterNumberName":"U-component_of_WINDS"},"data":[0,0,0,0,0,0,0,0,0,0,0,0,0,0,0,0,0,0,0,0,0,0,0,0,0,0,0,0,0,0,0,0,0,0,0,0,0,0,0,0,0,0,0,0,0,0,0,0,0,0,0,0,0,0,0,0,0,0,1.1157,1.1158,0,1.1284,1.1286,1.1287,1.1315,1.1314,1.1313,1.1312,1.1447,1.1452,1.1456,0,0,0,0,0,0,0,0,0,0,0,0,0,1.0941,1.0945,1.1157,1.1159,1.116,1.1284,1.1286,1.1288,1.1315,1.1314,1.1313,1.1312,1.1446,1.1451,1.1457,0,0,0,0,0,0,0,0,0,0,0,0,0,1.1048,1.0946,1.1157,1.1189,1.1193,1.1284,1.1286,1.1288,1.1315,1.1314,1.1313,1.1311,1.1444,1.1451,1.1457,1.1527,0,0,1.1478,1.1481,0,0,0,0,0,0,0,0,1.1042,1.1056,1.1182,1.1187,1.1191,1.1282,1.1259,1.1368,1.1316,1.1269,1.1312,1.1311,1.1394,1.1405,1.1432,1.1533,1.1539,1.1478,1.1483,1.1485,1.1487,0,0,0,0,0,0,0,1.1035,1.1051,1.1208,1.1184,1.119,1.1198,1.1212,1.128,1.1338,1.1273,1.1275,1.129,1.1396,1.1425,1.1435,1.1541,1.1478,1.1484,1.1488,1.1491,1.1705,1.1706,0,0,0,0,0,0,1.1021,1.1045,1.1203,1.1211,1.1112,1.1203,1.1218,1.1255,1.1337,1.1348,1.1291,1.1291,1.1415,1.1427,1.144,1.1526,1.1485,1.1492,1.1496,1.1703,1.1705,1.1707,0,0,0,0,0,0,1.1017,1.1035,1.1198,1.1129,1.115,1.1208,1.1249,1.1258,1.1287,1.1351,1.1362,1.131,1.1414,1.1431,1.1504,1.1531,1.1495,1.1501,1.1701,1.1704,1.1706,1.1699,0,0,0,0,0,0,1.101,1.1033,1.1059,1.1129,1.1154,1.1259,1.125,1.1261,1.1298,1.1299,1.1371,1.1382,1.1414,1.1494,1.1511,1.154,1.1506,1.1699,1.1702,1.1705,1.1697,1.1701,1.1704,0,0,0,0,0,1.1002,1.1054,1.1061,1.108,1.1187,1.1261,1.1275,1.131,1.13,1.1327,1.1368,1.138,1.1525,1.1502,1.1521,1.1552,1.1698,1.1701,1.1705,1.1695,1.17,1.1704,0,0,0,0,0,0,1.0987,1.1063,1.1072,1.1147,1.1197,1.1265,1.1301,1.1314,1.1369,1.1368,1.141,1.1426,1.1497,1.1532,1.1504,1.1623,1.1611,1.1619,1.1597,1.1602,1.1606,1.1596,1.1512,0,0,0,0,0,1.0992,1.1045,1.1109,1.1169,1.1193,1.1242,1.1276,1.1298,1.1352,1.1374,1.142,1.1474,1.1532,1.1569,1.1626,1.1702,1.1718,1.1733,1.1736,1.1739,1.1745,1.1787,1.1794,1.1719,1.1719,1.1719,0,0,1.1004,1.1052,1.1083,1.1167,1.1208,1.1262,1.126,1.1318,1.1358,1.1384,1.1455,1.1491,1.1554,1.1628,1.1664,1.166,1.1769,1.1744,1.1745,1.175,1.1792,1.1799,1.1805,1.1722,1.1721,1.1721,0,0,1.1053,1.1094,1.1148,1.1189,1.1251,1.1284,1.1296,1.1363,1.1387,1.1459,1.1479,1.1529,1.1627,1.1671,1.1706,1.1769,1.1782,1.1787,1.1805,1.1846,1.1852,1.1857,1.1879,1.1887,1.1793,1.1793,1.1793,0,1.1059,1.114,1.1174,1.123,1.1267,1.129,1.1345,1.1384,1.1462,1.1487,1.1481,1.1605,1.1649,1.1734,1.1749,1.1777,1.1793,1.1779,1.1848,1.1854,1.1859,1.1881,1.1889,1.1793,1.1793,1.1793,1.1793,0,1.1145,1.1201,1.1237,1.131,1.1351,1.1406,1.145,1.1487,1.1505,1.1538,1.1612,1.1665,1.1732,1.1754,1.1774,1.1842,1.1837,1.1839,1.1828,1.1866,1.1887,1.1895,1.1793,1.1793,1.1793,1.1793,0,0,1.1188,1.1278,1.1291,1.1324,1.1393,1.1438,1.1494,1.1559,1.1589,1.1643,1.1691,1.1774,1.1775,1.1815,1.1839,1.1875,1.1921,1.1873,1.1875,1.1879,1.1999,1.1996,1.2005,1.193,1.1932,1.1933,1.1993,0,1.1244,1.1344,1.1377,1.1461,1.1512,1.1535,1.1584,1.1633,1.1665,1.1715,1.1752,1.1809,1.1807,1.1831,1.1867,1.1908,1.1946,1.1904,1.1976,1.1978,1.1959,1.2016,1.2015,1.2069,1.2002,1.2003,1.2004,0,1.1324,1.1376,1.1464,1.1526,1.1549,1.1593,1.1654,1.1701,1.1757,1.1778,1.1821,1.1843,1.1903,1.1889,1.1973,1.1944,1.1975,1.2,1.2003,1.2011,1.1993,1.2025,1.2087,1.2095,1.2018,1.2016,1.2015,0,1.1345,1.1438,1.1502,1.153,1.1604,1.1634,1.1667,1.1721,1.1757,1.1811,1.1835,1.1896,1.1929,1.1976,1.2014,1.2,1.2094,1.2083,1.2114,1.2113,1.2133,1.2131,1.22,1.2154,1.2154,1.2154,1.2153,0,1.1404,1.1457,1.1512,1.1552,1.1612,1.1649,1.1708,1.1742,1.179,1.1838,1.1862,1.1906,1.1953,1.2003,1.2033,1.2098,1.2114,1.2133,1.214,1.213,1.2127,1.2151,1.2148,1.2156,1.2155,1.2155,1.2155,0,1.1438,1.1477,1.1549,1.1613,1.163,1.1672,1.1727,1.1767,1.18,1.1859,1.1876,1.1928,1.1989,1.203,1.2109,1.2129,1.2199,1.2206,1.2179,1.2183,1.2211,1.2207,1.2297,1.231,1.2256,1.2256,1.2257,0,1.1472,1.1513,1.1581,1.1614,1.1646,1.1699,1.1735,1.1774,1.1811,1.1877,1.1909,1.197,1.2022,1.2118,1.2164,1.2223,1.2232,1.2259,1.2241,1.223,1.2232,1.2228,1.2232,1.2262,1.2262,1.2262,1.2263,0,1.153,1.1547,1.1598,1.1655,1.1698,1.1746,1.1794,1.1819,1.1866,1.1907,1.1968,1.2008,1.2087,1.2148,1.2212,1.2247,1.2263,1.2268,1.2278,1.2268,1.2251,1.226,1.2186,1.2266,1.2265,1.2265,1.2265,1.2265,1.1565,1.1602,1.1655,1.1711,1.1751,1.1795,1.1835,1.1872,1.1923,1.1989,1.2009,1.2073,1.2128,1.2215,1.2251,1.2301,1.2299,1.2314,1.2318,1.2321,1.232,1.2243,1.2313,1.2313,1.2313,1.2313,1.2313,0,1.1622,1.1658,1.1709,1.1774,1.1818,1.1828,1.1881,1.1918,1.1973,1.2022,1.2071,1.2141,1.22,1.225,1.2311,1.2342,1.2351,1.2357,1.2355,1.2363,1.2319,1.2304,1.2349,1.2349,1.2349,1.2349,1.2349,1.2349,1.1658,1.1721,1.1744,1.1827,1.1862,1.1923,1.1953,1.1994,1.2033,1.2109,1.2158,1.219,1.2239,1.2304,1.2359,1.2372,1.2393,1.2397,1.2412,1.237,1.2366,1.2362,1.2348,1.2402,1.2402,1.2452,1.2452,1.2452]},{"header":{"parameterUnit":"m.s-1","parameterCategory":1,"la1":30.2991,"la2":30.254,"lo1":-89.0895,"lo2":-89.0444,"dy":0.0017,"dx":0.0017,"nx":28,"ny":28,"refTime":"2024-06-07T21:00:00:Z","depth":0,"parameterNumber":3,"parameterNumberName":"V-component_of_WINDS"},"data":[0,0,0,0,0,0,0,0,0,0,0,0,0,0,0,0,0,0,0,0,0,0,0,0,0,0,0,0,0,0,0,0,0,0,0,0,0,0,0,0,0,0,0,0,0,0,0,0,0,0,0,0,0,0,0,0,0,0,3.9778,3.9778,0,3.9775,3.9775,3.9775,3.9771,3.9771,3.9771,3.9771,3.9766,3.9766,3.9766,0,0,0,0,0,0,0,0,0,0,0,0,0,3.9778,3.9778,3.9778,3.9778,3.9778,3.9775,3.9775,3.9775,3.9771,3.9771,3.9771,3.9771,3.9766,3.9766,3.9766,0,0,0,0,0,0,0,0,0,0,0,0,0,3.9777,3.9778,3.9778,3.9776,3.9775,3.9775,3.9775,3.9775,3.9771,3.9771,3.9771,3.9771,3.9766,3.9766,3.9766,3.9767,0,0,3.9765,3.9765,0,0,0,0,0,0,0,0,3.9777,3.9777,3.9776,3.9776,3.9776,3.9773,3.9773,3.9772,3.9771,3.9773,3.9771,3.9771,3.9768,3.9768,3.9767,3.9766,3.9766,3.9765,3.9765,3.9765,3.9765,0,0,0,0,0,0,0,3.9777,3.9777,3.9777,3.9776,3.9776,3.9774,3.9774,3.9773,3.9771,3.9772,3.9772,3.9772,3.9768,3.9768,3.9767,3.9766,3.9765,3.9765,3.9765,3.9765,3.9764,3.9764,0,0,0,0,0,0,3.9778,3.9777,3.9777,3.9777,3.9776,3.9774,3.9774,3.9774,3.9771,3.977,3.9772,3.9772,3.9768,3.9767,3.9767,3.9767,3.9765,3.9765,3.9765,3.9764,3.9764,3.9764,0,0,0,0,0,0,3.9778,3.9778,3.9777,3.9777,3.9776,3.9774,3.9775,3.9774,3.9774,3.9771,3.977,3.9772,3.9768,3.9767,3.9766,3.9767,3.9765,3.9765,3.9764,3.9764,3.9764,3.9767,0,0,0,0,0,0,3.9778,3.9778,3.9779,3.9777,3.9776,3.9777,3.9775,3.9774,3.9774,3.9773,3.977,3.977,3.9768,3.9767,3.9766,3.9767,3.9765,3.9763,3.9764,3.9764,3.9767,3.9767,3.9768,0,0,0,0,0,3.9778,3.978,3.9779,3.9779,3.9778,3.9777,3.9777,3.9775,3.9774,3.9774,3.9772,3.977,3.9767,3.9767,3.9766,3.9766,3.9763,3.9764,3.9764,3.9767,3.9767,3.9768,0,0,0,0,0,0,3.9782,3.978,3.9778,3.978,3.9779,3.9777,3.9777,3.9776,3.9774,3.9774,3.9771,3.977,3.9769,3.9768,3.9768,3.9766,3.9765,3.9765,3.9767,3.9768,3.9768,3.9768,3.9765,0,0,0,0,0,3.9783,3.9783,3.9781,3.9783,3.9782,3.978,3.978,3.9778,3.9776,3.9776,3.9773,3.9771,3.9769,3.9769,3.9767,3.9767,3.9765,3.9766,3.9767,3.9767,3.9767,3.9765,3.9765,3.9764,3.9764,3.9764,0,0,3.9786,3.9784,3.9785,3.9784,3.9783,3.9782,3.978,3.978,3.9779,3.9775,3.9774,3.9773,3.977,3.9769,3.9768,3.9767,3.9767,3.9767,3.9767,3.9767,3.9765,3.9765,3.9765,3.9764,3.9764,3.9764,0,0,3.979,3.9789,3.979,3.9789,3.9787,3.9785,3.9785,3.9783,3.9781,3.978,3.9777,3.9776,3.9774,3.9771,3.977,3.9771,3.9769,3.9771,3.9772,3.977,3.977,3.9771,3.977,3.977,3.9771,3.9771,3.9771,0,3.9793,3.9793,3.9791,3.979,3.9789,3.9786,3.9786,3.9785,3.9783,3.9781,3.9781,3.9777,3.9775,3.9772,3.9772,3.9772,3.9771,3.9771,3.9771,3.9771,3.9771,3.977,3.977,3.9771,3.9771,3.9771,3.9771,0,3.9796,3.9796,3.9796,3.9794,3.9793,3.9793,3.979,3.9789,3.9787,3.9785,3.9783,3.978,3.9777,3.9777,3.9775,3.9774,3.9773,3.9772,3.977,3.9771,3.9771,3.977,3.9771,3.9771,3.9771,3.9771,0,0,3.9803,3.9799,3.9799,3.9798,3.9795,3.9794,3.9793,3.9791,3.9789,3.9787,3.9786,3.9783,3.9781,3.9779,3.9777,3.9775,3.9775,3.9774,3.9774,3.9773,3.9772,3.9773,3.9773,3.9773,3.9773,3.9773,3.9772,0,3.9806,3.9805,3.9803,3.9802,3.9801,3.9797,3.9796,3.9794,3.9791,3.9789,3.9786,3.9784,3.9782,3.9781,3.9779,3.9776,3.9775,3.9776,3.9771,3.9771,3.9771,3.9773,3.9774,3.9773,3.9772,3.9772,3.9772,0,3.981,3.9808,3.9808,3.9803,3.9803,3.9802,3.9799,3.9797,3.9793,3.9792,3.9789,3.9786,3.9783,3.9782,3.9778,3.9778,3.9776,3.9774,3.9773,3.9773,3.9771,3.9771,3.9773,3.9772,3.9772,3.9772,3.9772,0,3.9814,3.9812,3.9811,3.9809,3.9805,3.9804,3.9802,3.9798,3.9796,3.9793,3.9792,3.9788,3.9786,3.9782,3.9778,3.9777,3.9773,3.9772,3.9771,3.9771,3.977,3.977,3.9771,3.9769,3.9769,3.9769,3.9769,0,3.9818,3.9817,3.9812,3.9812,3.981,3.9807,3.9805,3.9803,3.9799,3.9797,3.9793,3.9791,3.9786,3.9782,3.9779,3.9775,3.9774,3.9772,3.9771,3.9772,3.9772,3.977,3.977,3.9769,3.9769,3.9769,3.9769,0,3.9823,3.982,3.9818,3.9813,3.9812,3.9811,3.9807,3.9805,3.9802,3.9799,3.9798,3.9793,3.9789,3.9784,3.9778,3.9776,3.9772,3.9771,3.9773,3.9773,3.9771,3.9771,3.977,3.977,3.9769,3.9769,3.9769,0,3.9825,3.9824,3.982,3.9818,3.9816,3.9814,3.9812,3.9807,3.9805,3.98,3.9799,3.9794,3.9791,3.9784,3.9779,3.9774,3.9772,3.9772,3.9772,3.9772,3.9771,3.9771,3.9771,3.9772,3.9772,3.9772,3.9773,0,3.9829,3.9827,3.9825,3.9821,3.9819,3.9816,3.9813,3.9811,3.9806,3.9804,3.98,3.9797,3.979,3.9786,3.978,3.9776,3.9773,3.9773,3.9772,3.9773,3.9774,3.9773,3.9773,3.9773,3.9773,3.9773,3.9773,3.9773,3.9832,3.9831,3.9827,3.9824,3.9821,3.9818,3.9816,3.9812,3.9809,3.9804,3.9801,3.9797,3.9791,3.9783,3.978,3.9775,3.9774,3.9774,3.9773,3.9773,3.9773,3.9775,3.9774,3.9774,3.9774,3.9774,3.9774,0,3.9835,3.9832,3.9829,3.9825,3.9822,3.982,3.9816,3.9813,3.981,3.9805,3.9801,3.9796,3.9791,3.9785,3.9779,3.9777,3.9775,3.9775,3.9775,3.9774,3.9775,3.9776,3.9776,3.9776,3.9776,3.9776,3.9776,3.9776,3.9836,3.9834,3.9831,3.9827,3.9824,3.982,3.9817,3.9814,3.981,3.9804,3.98,3.9796,3.9791,3.9785,3.9779,3.9777,3.9775,3.9776,3.9774,3.9774,3.9774,3.9774,3.9775,3.9776,3.9776,3.9773,3.9773,3.9773]}]]